This is the latest recevied weather packets stored in our database for station/object SP6RGZ-1. If no packets are shown the sender has not sent any weather packets the latest 10 day(s).
| Time | Temp. | Humidity | Pressure | Rain* | Wind** | Luminosity | Snow |
|---|---|---|---|---|---|---|---|
| 1788039002 | 17.22° C | 90% | 996.2 hPa | - | - | - | - |
| 1788038102 | 17.22° C | 90% | 996.3 hPa | - | - | - | - |
| 1788037202 | 17.22° C | 88% | 996.3 hPa | - | - | - | - |
| 1788036302 | 17.78° C | 86% | 996.3 hPa | - | - | - | - |
| 1788035401 | 17.78° C | 85% | 996.3 hPa | - | - | - | - |
| 1788034502 | 18.33° C | 82% | 996.4 hPa | - | - | - | - |
| 1788033602 | 18.33° C | 80% | 996.4 hPa | - | - | - | - |
| 1788032702 | 18.89° C | 74% | 996.4 hPa | - | - | - | - |
| 1788031802 | 19.44° C | 67% | 996.3 hPa | - | - | - | - |
| 1788030902 | 20° C | 66% | 996.4 hPa | - | - | - | - |
| 1788030002 | 20° C | 64% | 996.3 hPa | - | - | - | - |
| 1788029102 | 20.56° C | 63% | 996.2 hPa | - | - | - | - |
| 1788028201 | 21.11° C | 61% | 996.1 hPa | - | - | - | - |
| 1788027301 | 21.67° C | 59% | 996 hPa | - | - | - | - |
| 1788026402 | 21.67° C | 58% | 995.8 hPa | - | - | - | - |
| 1788025502 | 22.22° C | 57% | 995.7 hPa | - | - | - | - |
| 1788024602 | 22.78° C | 56% | 995.7 hPa | - | - | - | - |
| 1788023702 | 23.33° C | 55% | 995.6 hPa | - | - | - | - |
| 1788022801 | 23.89° C | 53% | 995.6 hPa | - | - | - | - |
| 1788021902 | 24.44° C | 51% | 995.5 hPa | - | - | - | - |
| 1788021002 | 24.44° C | 49% | 995.6 hPa | - | - | - | - |
| 1788020102 | 25° C | 48% | 995.6 hPa | - | - | - | - |
| 1788019202 | 25.56° C | 49% | 995.7 hPa | - | - | - | - |
| 1788018302 | 25.56° C | 47% | 995.6 hPa | - | - | - | - |
| 1788017402 | 25.56° C | 47% | 995.6 hPa | - | - | - | - |
* Rain since midnight (hover to see other rain measurements)
** Current wind speed in m/s (hover to see current wind gust speed)